Location: ???????
(38.3360°N, 23.6977°E)
Time: 23:02:03
(UTC+00:00)

Cosmos 2251 Rocket - Pass Details

Date: 17 November 2025
Orbit: 760 x 788 km, 74.0° (Epoch: 09 December)

Event Time Altitude Azimuth Distance (km) Brightness Sun altitude
Rises 16:17:43 0° 196° (SSW) 3,221 7.2 -13.2°
Reaches altitude 10° 16:20:04 10° 196° (SSW) 2,303 6.4 -13.6°
Maximum altitude 16:25:19 89° 108° (ESE) 780 3.5 -14.6°
Drops below altitude 10° 16:30:38 10° 19° (NNE) 2,338 5.7 -15.6°
Enters shadow 16:32:10 - 19° (NNE) 2,929 6.2 -15.9°
